Location: Crescent
(42.8242°N, 73.7329°W)
Time: 03:44:07
(UTC+00:00)

Explorer 7 - Pass Details

Date: 23 February 2026
Orbit: 430 x 542 km, 50.2° (Epoch: 7 March)

Event Time Altitude Azimuth Distance (km) Brightness Sun altitude
Rises 22:18:07 0° 301° (WNW) 2,476 10.9 2.5°
Reaches altitude 10° 22:20:17 10° 308° (NW) 1,619 9.8 2.1°
Maximum altitude 22:23:48 44° 22° (NNE) 673 7.1 1.5°
Drops below altitude 10° 22:27:27 10° 95° (E) 1,681 8.7 0.9°
Sets 22:29:45 0° 102° (ESE) 2,583 9.7 0.5°
